ECMWFFLT1_500_spd_030.txt.gz
Wind_Speed
58 59 59 60 60 61 61 62 63 63 64 65 66 67 69 70 70 70 71 72 73 74 75 76 77 78 78 78 78 79 80 81 81 81 80 79 79 79 79 79 80 81 81 82 83 83 84 85 85 84 83 83 82 82 82 82 82 84 85 86 86 85
59 59 59 59 60 60 61 62 63 64 65 67 68 70 72 73 73 73 74 74 75 75 76 77 78 79 80 80 81 81 82 83 84 84 84 84 84 85 85 85 84 84 84 84 85 85 86 86 87 87 87 86 86 86 86 86 86 85 85 86 87 88
60 61 61 63 64 66 67 68 69 70 71 72 73 74 75 75 76 76 76 76 77 77 77 77 78 79 81 82 82 82 83 84 85 86 87 88 89 89 90 91 91 90 89 89 89 89 89 90 90 91 91 90 90 90 91 91 91 90 89 89 88 89
63 65 66 68 69 71 72 73 74 75 75 76 77 78 78 78 79 79 79 79 80 80 80 80 82 84 85 86 87 88 88 89 89 90 90 90 91 92 92 93 93 93 93 93 92 92 93 93 94 94 94 94 94 94 95 96 96 95 94 93 92 91
66 68 69 71 72 73 75 76 77 78 79 79 80 80 81 81 81 82 83 83 83 83 84 86 88 90 91 91 91 91 92 92 92 92 91 91 91 91 91 91 91 92 92 93 93 93 94 94 95 96 96 97 97 97 97 98 98 99 98 98 96 95
69 71 72 73 74 75 76 78 78 79 80 81 81 82 83 84 84 85 86 87 88 89 91 93 93 93 93 92 92 93 93 93 93 93 93 93 93 93 93 92 92 92 92 93 93 94 95 95 95 96 97 98 98 99 98 98 99 99 100 100 99 98
71 73 74 75 76 77 78 79 80 81 82 84 85 86 87 88 89 91 92 93 94 95 95 96 95 95 94 94 94 94 95 95 96 96 96 96 96 97 97 97 97 97 97 97 97 97 98 98 98 98 98 99 101 101 102 101 101 101 101 102 101 101
73 74 76 77 78 79 80 81 82 84 85 87 88 90 91 92 93 94 94 95 96 96 96 96 96 96 97 97 97 97 98 98 98 99 99 100 100 101 102 102 103 103 103 103 103 103 103 102 102 102 102 103 103 104 105 105 106 106 105 105 104 104
74 76 77 78 79 80 81 82 83 85 86 88 89 90 91 92 93 93 94 95 96 96 97 97 98 98 99 99 100 100 101 101 102 102 103 103 104 104 105 105 105 105 105 106 106 106 106 106 106 106 107 107 108 108 108 108 108 109 109 109 109 108
74 75 77 78 78 80 81 82 84 85 86 87 89 90 91 92 93 94 95 96 96 97 98 99 100 100 100 101 101 102 102 102 103 103 103 103 103 103 103 103 103 103 103 102 103 103 104 104 105 106 107 109 110 111 111 111 111 111 111 112 112 112
75 76 77 79 80 82 83 84 85 86 88 89 90 91 92 93 94 95 96 97 97 98 99 100 100 100 100 100 99 99 99 98 97 97 97 97 97 97 97 97 98 98 97 97 97 97 97 97 98 99 101 104 106 108 110 111 112 113 113 114 114 114
76 77 79 80 82 83 84 85 86 87 89 90 91 92 93 94 94 95 96 96 96 96 96 96 95 94 93 92 91 90 89 88 88 87 87 87 87 87 87 88 89 89 90 91 91 91 91 91 92 93 94 96 99 101 103 105 107 109 111 113 114 114
77 78 80 81 83 84 85 86 87 88 89 90 91 92 93 93 93 93 92 92 91 90 89 87 85 83 82 80 79 79 78 78 78 78 78 77 77 77 78 79 80 81 82 83 84 85 86 86 87 88 89 91 93 95 97 99 100 102 104 106 108 110
79 80 81 82 84 85 86 86 87 88 88 89 89 89 89 89 88 87 86 85 83 81 79 77 75 74 73 73 72 72 72 72 72 72 72 71 71 72 72 73 74 75 76 78 79 80 80 81 81 83 85 86 88 90 93 95 96 97 98 99 101 103
80 81 82 83 84 84 85 85 85 85 86 86 85 85 84 83 81 79 77 76 74 73 72 71 70 70 70 70 69 69 69 69 69 69 69 69 69 70 70 71 72 73 74 76 77 77 77 78 79 81 82 83 84 86 88 90 91 92 93 94 96 97
80 81 82 83 84 84 84 83 83 82 82 81 80 79 77 76 74 73 71 70 69 69 68 68 68 68 68 68 68 68 68 68 68 69 70 71 71 72 72 73 74 75 76 77 78 78 78 78 79 81 81 82 83 84 86 87 87 88 89 90 91 92
81 81 82 82 82 81 81 80 79 77 76 74 73 72 71 70 70 69 68 68 67 67 66 66 67 67 67 67 68 68 69 70 71 72 73 73 74 74 74 74 75 75 75 76 77 77 76 76 78 79 79 80 81 82 83 84 84 84 85 85 86 87
80 80 79 78 77 76 75 73 71 69 68 67 66 66 66 66 66 65 65 65 65 65 66 66 67 68 68 69 70 71 72 73 73 74 74 74 73 73 73 73 73 73 73 74 75 75 74 74 76 77 77 78 79 80 80 80 80 80 80 80 80 81
77 76 74 72 70 68 66 65 64 63 63 63 63 63 63 63 63 63 63 64 65 66 67 68 69 70 71 71 72 72 72 72 72 73 72 72 71 71 72 72 72 73 74 74 74 74 73 72 73 75 75 76 76 76 76 76 75 75 75 75 76 77
71 69 67 64 62 61 60 60 60 60 60 60 60 61 61 61 61 62 63 64 66 68 69 70 71 71 71 71 71 71 70 70 70 70 71 71 71 71 72 72 72 72 72 72 72 72 71 69 69 71 71 70 70 69 68 67 66 66 66 66 67 68
63 61 59 58 57 57 57 57 57 57 57 58 59 59 60 61 61 63 64 65 67 68 70 70 70 70 70 69 69 69 69 69 69 70 71 72 72 71 71 70 69 68 68 68 67 66 66 64 64 65 64 61 60 60 58 56 55 55 55 56 57 59
56 55 54 54 54 54 55 55 55 55 56 57 58 59 60 61 62 63 65 66 67 68 69 69 69 68 68 68 67 68 68 69 69 70 70 71 70 69 67 66 65 64 63 62 60 60 61 60 58 57 56 54 53 53 52 50 50 50 51 53 55 57
52 52 52 52 53 53 53 53 54 55 56 57 58 59 60 61 62 64 65 66 67 68 67 67 66 66 66 66 67 67 68 69 69 69 69 68 67 65 64 62 61 59 56 55 56 56 56 55 53 51 49 48 48 49 49 49 50 52 53 55 57 60
50 51 51 52 52 52 52 53 54 55 57 58 59 59 60 61 63 64 65 66 66 65 65 64 64 64 65 66 67 67 67 68 68 68 67 65 64 62 59 56 54 52 51 51 52 52 51 50 49 47 46 46 47 48 50 51 53 55 57 58 60 64
50 51 51 52 52 53 53 54 55 56 58 59 59 60 61 62 63 64 64 64 64 63 63 63 63 64 66 66 67 67 66 66 66 66 65 63 61 57 53 50 48 47 47 47 48 49 49 48 47 47 47 47 48 50 52 53 55 57 60 61 63 65
50 51 52 53 53 54 54 55 56 57 58 59 60 60 61 62 63 63 63 62 62 62 62 63 64 65 66 66 66 65 65 64 64 63 62 60 57 51 47 45 45 44 44 43 44 46 48 48 47 48 49 50 50 52 53 55 57 59 61 62 63 64
51 52 53 53 54 55 55 56 57 58 59 59 60 61 62 62 62 62 62 62 61 62 63 63 64 64 64 65 64 63 63 63 62 61 59 56 51 46 43 43 43 42 42 41 42 44 45 46 46 47 49 50 51 52 54 55 57 58 59 61 62 63
52 53 54 55 56 56 57 58 58 58 59 60 61 61 62 62 61 61 61 61 62 62 63 63 63 63 63 63 62 62 62 61 60 58 55 51 46 43 43 42 41 41 41 41 42 43 42 43 44 45 46 48 49 51 52 54 55 56 58 59 60 60
54 55 55 56 57 58 58 59 59 59 60 61 61 62 62 61 61 61 61 62 62 62 62 62 61 61 61 61 61 60 60 60 58 55 50 45 43 42 43 42 41 41 42 42 43 43 42 42 42 43 44 45 46 48 50 52 54 55 56 57 57 57
55 56 56 57 58 59 59 60 60 60 60 61 61 61 61 61 61 61 61 61 61 61 60 60 60 60 60 59 59 59 58 57 55 51 45 43 43 43 42 41 41 42 43 43 43 43 42 41 42 43 43 44 45 47 48 50 52 54 54 55 55 56
55 56 57 58 59 59 60 60 60 60 61 61 61 60 60 60 60 61 60 60 59 59 59 59 59 59 59 58 57 57 56 54 51 45 41 41 43 43 42 41 41 42 43 43 43 42 41 41 42 43 44 44 45 47 48 50 51 53 54 54 55 55
55 56 57 58 59 59 60 60 60 60 61 60 60 60 60 60 60 59 59 58 57 57 57 56 57 57 57 56 56 55 53 50 47 43 40 40 40 41 42 43 43 44 44 43 43 43 43 42 43 44 44 46 47 48 49 50 52 53 53 54 55 55
55 56 58 59 59 59 59 59 60 60 60 60 60 60 60 59 58 57 56 56 55 54 54 54 54 55 55 55 55 53 49 43 41 41 41 40 39 40 42 44 45 46 46 45 44 44 44 44 44 45 46 47 49 50 50 51 51 52 52 53 53 54
55 57 58 58 59 58 58 58 59 59 59 60 59 59 59 58 56 55 54 53 52 52 52 52 53 53 53 53 52 51 45 39 35 36 39 40 40 41 43 44 45 45 46 46 46 45 44 44 45 45 46 48 49 50 50 50 49 50 51 51 52 53
56 57 57 58 58 58 58 58 59 59 58 58 58 58 57 55 54 53 52 51 50 50 51 51 52 52 51 51 50 47 42 37 34 33 34 36 39 42 44 44 44 44 44 45 46 46 45 45 46 46 47 48 49 50 50 49 48 48 49 49 49 51
56 57 57 58 58 58 58 59 59 58 57 57 56 55 53 52 52 51 50 50 50 50 50 50 50 49 48 48 47 43 38 35 34 33 33 34 37 40 42 43 43 44 43 44 45 46 47 47 47 48 48 49 50 50 50 48 46 45 47 48 48 49
57 57 58 58 58 57 57 58 58 56 55 54 53 52 51 50 50 50 49 49 49 49 48 48 48 47 46 46 45 40 36 34 33 33 34 35 37 39 41 41 41 43 44 44 44 46 47 48 49 49 50 49 50 50 49 47 44 42 43 45 46 48
58 58 58 57 57 56 56 57 56 55 53 51 50 49 49 49 48 48 48 47 47 47 46 47 47 46 45 44 42 38 34 33 32 33 34 36 38 39 40 40 40 41 43 44 45 46 47 48 49 50 50 50 50 50 49 46 42 39 39 42 44 46

ECMWFFLT1_500_spd_033.txt.gz
Wind_Speed
62 62 62 61 61 62 63 64 65 66 66 66 65 65 64 65 65 64 65 66 67 69 70 72 74 76 78 80 82 82 81 81 82 83 84 85 85 84 84 85 85 86 87 88 89 89 88 88 88 88 88 89 90 90 90 90 89 88 87 87 86 85
62 62 62 63 63 64 65 65 65 65 64 64 63 63 63 65 66 66 66 68 69 70 71 72 73 74 76 79 81 83 84 83 83 83 84 85 86 87 87 88 88 89 90 91 92 92 92 92 92 93 93 93 93 93 94 94 95 94 94 93 93 92
63 63 64 65 65 65 65 64 64 63 63 62 62 63 65 67 70 71 71 72 74 75 76 77 78 79 80 82 84 85 86 86 86 86 86 87 87 88 89 90 90 91 91 91 92 93 94 95 96 97 97 97 97 97 97 98 98 98 98 98 97 97
65 66 66 67 67 67 67 66 66 66 65 66 67 68 70 72 74 75 75 76 77 78 79 80 81 82 82 83 85 85 86 87 87 88 89 90 91 92 93 94 94 95 95 95 96 97 98 99 99 99 98 98 98 99 99 100 100 101 101 100 100 100
67 67 68 68 69 68 68 68 68 68 69 71 72 73 74 76 77 78 79 80 80 81 82 83 84 85 85 86 87 88 89 90 91 91 92 93 95 96 96 97 97 98 98 99 99 99 100 100 99 99 99 99 99 99 100 100 101 102 102 103 103 102
68 68 69 69 69 69 69 70 71 73 74 74 75 76 77 79 80 80 81 82 83 84 85 85 86 87 88 88 89 90 91 92 93 93 94 95 95 96 97 98 98 98 99 99 99 100 100 100 100 100 101 101 101 101 101 101 102 102 103 104 104 105
68 68 69 70 71 71 72 73 74 75 75 75 76 77 78 79 80 81 82 83 84 85 86 86 87 88 89 90 91 92 93 94 94 95 95 96 96 96 97 98 98 98 99 99 100 101 101 102 102 102 103 103 103 103 103 103 103 103 103 104 104 105
68 69 70 71 72 72 73 73 74 74 75 75 76 77 78 79 80 82 83 84 85 86 87 88 89 90 91 92 93 94 94 95 95 96 96 96 97 97 98 98 99 99 100 100 101 101 102 102 103 103 104 104 105 105 105 105 105 105 105 105 105 106
69 69 70 71 71 72 72 72 73 74 75 76 77 78 79 80 82 83 85 86 87 88 89 90 91 92 93 93 94 94 95 95 95 96 96 96 97 97 98 98 98 99 99 99 100 100 100 101 102 102 103 104 105 105 105 105 106 106 106 106 106 107
68 69 69 70 70 71 71 72 74 75 76 77 78 79 80 82 83 85 86 87 88 90 90 91 92 92 93 93 94 94 94 95 95 95 95 95 95 95 95 95 95 95 95 95 95 96 96 97 97 98 99 100 101 102 102 103 103 104 104 104 105 105
68 69 69 70 70 71 72 74 75 76 77 78 79 80 82 83 85 86 87 88 89 90 91 91 92 92 92 93 93 93 92 92 92 91 90 90 89 88 88 87 87 87 87 87 87 88 88 89 90 91 92 93 94 95 96 96 97 97 98 99 99 99
68 68 69 69 70 72 73 74 75 76 78 79 80 82 84 85 86 87 88 88 89 90 90 90 90 90 90 89 88 87 86 84 83 81 80 79 78 77 77 77 78 78 79 79 79 79 80 81 82 83 85 86 88 89 90 90 90 91 92 93 93 93
67 68 69 70 71 72 73 75 76 78 79 81 83 84 85 86 87 87 88 88 88 88 88 87 86 85 83 82 80 78 76 74 72 71 70 70 69 70 70 70 71 72 73 73 74 74 75 76 77 79 80 81 83 84 85 86 86 87 87 88 88 89
68 69 69 70 71 73 75 77 78 80 82 83 84 85 86 86 86 87 87 87 86 85 84 82 80 78 75 73 71 69 68 67 66 66 66 66 67 67 68 68 69 70 71 72 72 73 74 75 76 77 78 79 80 81 82 82 82 83 83 83 84 85
69 70 71 72 74 75 77 79 81 82 83 84 84 85 85 86 86 85 85 83 82 80 78 75 73 71 69 67 66 65 64 64 65 65 65 66 66 67 68 69 70 71 72 72 72 72 73 73 74 75 75 76 76 77 78 78 78 78 78 78 79 80
71 72 73 75 76 78 80 82 83 83 84 84 84 85 84 84 83 82 80 78 76 73 71 69 67 65 64 63 63 63 63 64 64 65 66 67 67 68 69 69 70 70 71 71 71 71 70 70 71 71 72 73 73 74 75 75 75 75 75 75 76 77
72 74 75 77 78 80 81 83 83 83 84 84 83 83 81 80 78 76 73 71 69 67 66 64 63 62 62 62 62 62 63 64 65 67 68 68 69 69 69 70 70 70 69 69 69 69 68 69 70 71 71 72 73 74 74 74 74 74 74 74 74 74
74 75 76 78 80 81 82 83 83 83 83 82 80 78 76 74 71 69 67 65 64 63 62 61 61 61 61 62 63 64 65 66 67 68 69 69 70 71 71 70 70 69 69 69 69 68 68 68 70 71 71 72 72 72 72 72 71 71 71 71 71 70
75 76 78 79 80 81 81 81 81 81 80 78 75 72 70 67 65 63 62 61 61 61 61 61 61 61 62 63 64 65 66 67 68 70 70 71 70 70 70 69 69 68 68 68 69 69 68 68 69 70 69 69 69 69 68 68 68 68 67 67 66 65
76 77 78 79 80 79 79 79 78 76 74 72 69 66 64 62 60 59 59 59 59 60 61 61 62 63 64 65 65 66 67 69 70 71 71 71 70 69 68 68 67 67 68 68 68 68 67 66 66 66 65 65 64 63 62 63 64 63 62 61 60 58
77 77 78 77 77 76 75 74 72 70 68 66 63 61 60 59 58 58 58 59 60 61 61 62 63 64 65 66 66 68 68 69 70 70 70 69 68 67 67 67 67 67 67 67 67 66 65 63 62 62 60 57 56 56 57 59 60 59 58 57 54 52
76 75 74 73 72 71 69 68 66 64 62 60 59 58 57 57 57 57 58 59 60 61 62 63 64 65 66 66 67 68 69 70 69 69 68 67 67 67 67 67 67 66 66 65 64 62 62 60 58 56 53 51 51 52 54 54 55 54 53 52 50 48
72 71 69 67 66 64 62 61 60 59 58 57 56 56 56 56 57 57 59 60 61 62 63 64 65 66 66 67 68 68 69 69 68 67 67 67 67 67 67 67 66 65 63 62 61 59 58 56 53 50 48 48 49 49 50 50 49 49 47 46 46 45
67 65 63 61 59 58 57 56 56 56 55 55 55 56 56 57 57 58 59 61 62 63 64 65 66 66 67 67 68 68 67 67 67 67 67 67 67 67 66 66 65 63 61 59 57 56 54 51 48 47 47 47 47 47 47 47 46 45 44 43 44 44
61 58 57 55 54 54 53 53 54 54 55 55 56 56 57 57 58 59 60 61 62 63 64 65 66 66 67 67 67 67 66 66 66 67 67 67 67 66 65 64 63 61 58 56 53 51 48 46 46 46 47 47 46 46 46 45 45 44 44 43 42 43
55 53 51 51 52 52 52 52 53 54 55 55 56 57 57 58 59 60 61 62 62 63 64 65 66 66 67 67 66 65 65 66 66 66 66 66 66 65 64 63 61 59 56 53 49 45 43 43 44 46 46 46 46 46 46 45 45 45 44 43 42 43
51 49 49 50 51 52 52 53 54 55 55 56 57 58 58 59 60 60 61 62 62 63 64 65 66 66 65 65 65 65 65 65 64 64 64 64 64 64 63 61 59 56 53 50 44 40 40 41 43 44 45 46 46 46 46 46 45 45 45 44 44 44
49 48 49 50 51 52 53 54 55 56 57 58 58 59 59 60 60 61 61 62 62 63 64 64 64 64 64 64 64 64 64 63 63 62 62 62 62 62 61 59 56 54 51 46 40 37 38 40 42 43 44 45 46 45 45 45 45 46 46 46 45 46
48 48 49 50 51 53 54 55 56 57 58 59 59 60 60 60 60 61 61 61 62 62 63 63 63 63 63 63 63 62 62 61 61 60 60 60 60 60 60 58 55 52 48 41 36 36 38 39 41 43 44 45 45 44 44 44 44 45 45 45 46 46
48 48 49 50 52 53 55 56 57 58 59 59 60 60 60 60 60 60 60 61 61 61 62 62 62 62 62 62 61 60 59 59 59 58 58 59 59 59 59 56 53 49 43 37 36 37 37 39 41 43 43 43 44 44 43 43 43 44 45 45 46 46
47 48 49 51 53 55 56 57 58 59 59 59 60 60 60 60 60 60 60 60 61 61 61 61 61 61 60 59 58 57 57 57 57 57 57 57 58 58 57 54 50 44 38 35 36 37 38 39 40 41 42 43 43 43 43 43 44 45 46 47 47 48
48 49 50 52 53 54 56 57 57 58 58 59 59 59 60 60 60 60 60 61 61 61 60 60 59 58 57 56 55 54 54 55 56 56 56 55 55 55 55 52 47 40 36 35 35 37 38 39 40 41 42 43 43 43 44 44 45 46 47 48 49 51
48 49 50 51 52 53 54 55 56 57 58 59 59 60 60 60 60 60 60 61 60 60 59 58 57 55 54 53 53 52 52 51 52 52 53 54 53 53 53 51 44 38 35 35 35 36 38 39 40 41 43 43 43 43 44 44 46 47 48 50 51 53
46 48 49 50 51 52 53 54 55 56 57 58 59 59 59 60 60 60 60 60 59 58 57 56 54 52 51 51 50 50 50 50 49 49 50 52 53 53 52 49 42 36 35 36 37 36 38 39 40 41 42 42 42 43 43 45 47 48 49 51 52 54
46 47 48 49 50 51 52 53 54 55 56 57 58 58 59 59 59 59 58 58 57 57 55 53 51 50 50 50 49 49 50 50 50 49 49 50 51 52 53 50 43 36 34 36 37 37 38 38 39 40 40 40 41 42 43 45 47 49 50 51 53 54
46 47 48 48 49 50 51 53 54 54 55 56 56 56 57 57 57 57 56 56 56 54 52 51 50 50 50 50 50 50 51 51 52 52 51 49 47 48 49 50 46 40 36 35 36 37 37 38 39 39 38 38 39 40 42 44 47 49 51 52 53 54
47 47 48 48 49 50 50 52 53 53 53 53 53 54 54 54 54 54 54 54 53 52 50 50 50 50 50 51 51 52 53 53 54 55 54 52 48 46 44 43 42 41 39 37 36 37 37 37 38 37 37 38 38 40 41 43 46 48 51 52 53 53
48 48 49 50 50 50 51 52 52 51 51 52 52 52 52 52 52 53 53 52 51 50 50 50 50 51 51 52 52 53 54 55 56 57 56 54 51 47 43 39 37 37 38 37 36 36 37 37 37 37 37 37 39 40 41 42 44 47 49 50 51 50

ECMWFFLT1_500_spd_036.txt.gz
Wind_Speed
68 70 72 72 72 71 71 70 71 71 71 71 71 70 69 69 69 70 70 71 72 73 73 73 74 73 73 73 72 72 73 75 75 75 75 76 77 79 81 82 83 85 86 87 88 89 90 92 93 94 95 95 95 95 95 94 94 93 93 93 93 93
71 71 71 71 71 70 70 71 71 71 71 71 70 70 70 70 70 71 71 72 73 73 73 73 73 73 72 72 71 72 73 76 77 77 78 80 81 82 83 83 84 85 87 88 89 89 90 91 92 93 94 95 96 97 97 98 98 98 98 98 98 98
71 71 71 71 71 72 72 72 72 71 71 70 69 69 70 70 71 71 72 72 72 72 72 72 72 72 72 73 74 76 78 79 80 81 82 83 83 83 83 84 85 86 86 87 88 89 90 91 92 92 93 94 94 96 97 98 99 100 100 101 101 101
73 73 74 74 74 74 74 73 73 72 71 70 70 70 71 71 72 72 72 72 72 72 73 73 74 75 76 77 79 79 80 80 80 81 82 82 83 83 84 84 85 86 87 88 89 90 91 92 93 93 94 94 95 96 97 98 99 99 100 101 101 101
75 75 75 75 75 75 75 74 73 72 71 70 70 71 71 72 72 72 73 73 74 74 75 76 76 77 77 78 78 78 79 79 80 80 81 82 84 85 85 86 87 88 89 90 90 91 92 93 94 94 95 96 96 97 98 99 99 100 100 101 101 102
77 77 76 75 75 75 76 75 74 72 71 71 71 71 71 71 72 72 73 74 75 75 76 77 77 77 78 78 79 79 80 81 82 83 84 85 86 87 88 89 90 91 91 92 93 93 94 94 95 95 96 96 97 98 98 99 100 101 101 102 102 102
78 77 76 75 75 76 75 74 73 72 72 72 72 72 72 72 73 73 74 74 75 76 77 77 78 79 79 80 81 82 83 84 85 85 86 87 89 89 90 91 92 93 93 93 94 94 95 95 95 96 96 97 97 98 98 99 99 100 101 101 101 102
77 76 76 76 76 76 75 74 73 73 73 73 73 73 73 73 74 74 75 75 76 77 78 79 79 80 81 82 82 84 85 86 87 88 89 90 90 91 92 92 93 93 94 94 94 94 94 94 95 95 95 95 96 96 96 97 97 98 98 99 99 99
76 76 75 75 75 75 75 74 74 74 74 73 73 73 74 74 75 76 76 77 78 78 79 80 80 81 82 83 84 85 86 87 89 90 91 91 91 92 92 92 93 93 93 93 93 93 92 92 92 92 92 92 92 92 93 93 93 94 94 94 94 94
74 73 73 72 73 74 73 73 73 73 73 73 74 74 75 76 76 77 78 78 79 79 80 81 81 82 83 84 85 87 88 89 90 91 91 91 92 92 92 91 91 91 90 89 89 88 88 87 86 86 86 86 86 87 87 87 88 88 88 88 88 89
71 70 70 71 71 72 71 71 72 72 73 73 74 75 75 76 77 77 78 79 79 80 81 82 83 84 85 86 87 88 89 90 90 90 90 90 90 89 89 88 87 86 84 83 82 81 81 80 79 80 80 80 81 81 82 82 82 83 83 83 83 83
69 68 68 68 69 70 70 71 72 72 73 73 74 75 76 77 77 78 79 79 80 81 82 83 84 85 86 87 88 89 89 89 89 88 87 87 85 84 83 81 80 79 77 76 75 74 74 74 74 75 76 77 77 78 78 78 78 79 79 79 79 79
67 67 67 67 69 70 71 71 72 72 73 73 74 75 76 77 78 79 79 80 81 82 83 84 85 87 88 88 88 87 86 85 84 83 81 80 78 77 75 74 72 71 70 70 70 70 70 70 71 72 73 74 75 75 75 75 75 75 75 75 75 75
67 67 67 68 69 70 71 71 72 72 73 74 75 76 77 77 78 79 80 81 82 83 84 86 87 87 87 86 85 84 82 80 78 76 74 72 71 69 68 67 66 66 66 67 67 68 68 69 70 71 71 72 72 73 73 73 72 72 72 72 72 72
66 66 66 67 68 70 71 71 72 72 73 74 75 76 77 78 79 80 81 82 83 84 85 86 86 86 85 83 81 79 77 74 72 70 68 66 65 64 63 63 64 64 65 66 67 67 67 68 69 70 70 71 71 72 72 71 70 70 69 69 69 69
65 65 66 67 69 69 70 71 71 72 74 75 76 77 78 79 80 82 83 84 85 85 86 85 84 83 81 79 76 74 71 69 66 65 63 62 62 62 62 63 64 65 66 66 67 67 67 68 70 70 70 70 70 70 70 70 69 69 69 68 68 68
65 66 67 68 68 69 70 71 73 74 76 77 78 79 80 81 82 83 84 85 85 85 84 83 81 79 76 73 70 68 66 64 63 62 62 62 62 62 63 64 65 66 66 67 67 67 68 69 70 70 70 70 70 70 70 70 70 70 69 69 68 68
66 67 68 68 69 70 72 74 75 76 77 78 79 80 81 82 83 84 84 84 84 83 81 79 76 72 69 67 64 63 62 61 61 62 62 63 63 64 65 66 66 67 67 68 69 69 69 69 70 70 69 70 70 70 71 71 70 70 69 68 67 66
67 68 69 71 72 73 75 76 77 78 79 80 81 81 82 83 83 84 83 82 81 79 76 73 69 66 64 62 61 61 61 61 62 63 64 64 65 66 67 67 67 68 69 69 70 70 69 68 69 69 69 70 71 71 71 71 70 69 67 66 64 62
69 71 72 73 74 76 77 78 80 80 81 81 82 82 83 83 82 81 80 78 76 73 70 67 64 62 61 60 61 61 62 63 64 65 66 66 66 67 68 68 68 69 70 70 70 69 68 68 68 69 70 70 71 71 70 70 68 66 64 62 60 56
72 73 75 76 77 78 80 81 81 81 81 81 82 81 81 80 79 77 75 73 70 67 65 62 61 60 60 60 61 62 63 64 65 66 67 67 68 68 68 69 69 69 69 69 69 69 69 68 68 69 69 69 69 69 68 66 65 62 60 57 54 50
75 76 77 78 79 80 81 81 81 81 80 80 79 79 77 76 74 72 69 67 65 63 61 60 60 60 60 61 62 63 64 65 66 67 67 68 68 68 69 69 69 68 68 68 68 68 68 67 67 66 66 66 65 65 64 62 60 57 54 51 48 45
78 79 79 80 81 81 81 80 79 78 78 77 76 74 73 71 69 67 65 63 61 60 59 59 59 60 61 62 62 63 64 65 66 67 68 68 68 69 69 68 68 67 66 66 66 66 65 65 64 63 62 62 61 60 59 57 54 52 49 46 43 43
79 80 80 80 80 80 78 77 76 74 73 72 70 69 68 66 64 62 61 60 59 59 58 59 60 60 61 62 63 63 64 65 66 67 68 68 68 68 67 67 66 66 65 64 63 63 63 62 62 61 60 59 57 56 54 52 49 47 46 43 42 42
80 80 80 80 78 77 75 73 70 69 67 66 65 64 63 61 60 58 58 57 57 58 58 59 60 61 61 62 63 63 64 65 66 66 66 66 66 66 65 65 65 64 62 61 61 60 60 60 59 59 57 56 54 51 49 47 45 44 44 42 41 41
80 79 79 77 74 71 69 66 64 62 62 61 60 59 58 57 56 56 56 57 57 58 58 59 60 61 61 62 62 63 63 64 64 64 65 65 65 65 64 63 63 62 60 59 58 58 57 57 56 56 55 53 50 47 44 43 43 43 43 42 41 41
78 77 74 70 67 64 61 59 58 57 56 56 56 55 54 54 55 55 56 57 57 58 58 59 60 60 61 62 62 62 63 63 63 64 64 64 64 63 62 61 61 60 59 58 56 55 54 54 53 53 51 49 46 43 42 42 42 43 43 43 43 42
73 69 65 62 59 56 55 54 53 52 52 53 53 53 53 53 54 55 55 56 57 57 58 59 60 61 61 62 62 62 63 63 63 63 63 62 62 61 60 59 58 58 57 56 54 52 52 52 52 51 49 46 43 41 41 41 42 43 44 44 44 43
64 60 57 54 52 51 50 50 50 50 51 51 51 52 52 53 53 54 55 56 57 57 58 59 60 61 62 62 62 62 62 62 62 61 61 60 60 59 57 57 56 55 55 54 52 51 51 52 51 50 48 44 41 40 41 42 42 43 43 43 43 43
56 53 50 48 48 48 48 49 49 50 50 50 50 51 52 52 53 54 55 56 57 58 58 59 60 60 61 61 61 61 61 61 60 59 59 58 57 56 55 55 54 54 54 53 52 52 51 51 51 49 46 43 41 40 41 42 42 42 42 41 42 42
50 48 46 46 47 48 48 48 49 48 48 48 49 51 51 52 53 54 54 55 56 56 57 57 58 59 59 59 59 59 59 58 58 57 55 55 54 54 54 54 54 54 54 54 53 52 52 51 49 47 43 40 40 40 41 41 42 41 40 41 41 42
48 47 46 46 47 47 46 46 46 46 47 48 49 51 51 52 52 53 53 54 54 55 55 56 56 57 57 57 56 56 56 55 55 54 53 52 52 53 54 54 54 54 55 54 54 53 53 51 49 45 40 38 38 39 40 41 41 41 40 40 41 42
47 46 46 45 45 44 44 44 45 45 46 48 49 50 51 51 52 52 53 53 54 54 54 54 55 55 55 55 54 54 53 52 52 52 52 52 52 53 54 55 55 55 56 56 56 55 54 52 50 45 39 36 37 38 40 41 41 40 40 40 41 42
46 45 44 43 43 42 43 44 45 46 47 48 49 50 50 51 52 53 53 53 53 53 53 53 53 54 54 54 54 53 53 51 50 49 51 53 53 54 54 55 56 57 58 58 58 57 55 52 49 44 38 36 36 38 39 40 40 39 39 40 40 41
46 44 43 43 43 43 44 45 46 47 48 49 50 51 52 52 53 54 54 54 53 52 52 52 52 53 53 54 54 54 53 52 50 50 50 52 54 55 56 57 58 59 59 59 60 59 56 53 49 42 36 34 36 37 38 39 39 39 39 39 39 40
45 44 44 44 45 45 45 46 48 49 50 52 53 53 53 54 55 55 55 55 54 53 52 52 52 52 53 53 54 55 54 53 52 52 52 52 53 55 57 59 60 61 61 60 60 59 57 54 48 39 34 34 35 37 38 38 38 38 39 39 39 39
46 46 46 46 47 47 47 48 50 51 52 54 55 55 55 56 56 56 56 56 55 54 53 53 53 53 53 53 54 55 55 55 55 54 54 55 55 56 57 59 61 63 63 61 59 57 56 52 43 36 33 34 35 36 37 36 37 38 39 39 39 40
48 49 49 49 49 49 50 51 52 53 54 56 56 56 57 58 58 57 57 57 57 56 55 55 55 55 55 55 56 56 57 57 57 57 56 57 57 57 57 58 60 62 63 61 58 56 54 47 38 32 32 35 35 35 35 35 35 37 38 38 39 40

ECMWFFLT1_500_spd_042.txt.gz
Wind_Speed
50 51 51 51 51 51 52 54 56 58 59 60 61 62 63 64 65 66 67 68 69 70 71 71 71 72 72 73 74 75 76 76 76 76 75 75 74 73 72 71 70 70 70 70 70 70 71 71 72 73 73 74 75 75 76 77 78 79 80 81 82 83
51 51 52 52 53 54 55 57 59 60 61 62 63 64 65 65 67 68 70 71 71 72 72 73 73 74 74 75 76 77 77 77 76 76 75 75 74 73 72 71 70 70 69 70 70 71 72 72 73 73 74 75 75 76 77 77 78 79 80 81 82 83
52 53 54 55 55 57 58 60 61 62 62 63 64 65 66 68 70 71 72 73 73 73 73 74 74 75 76 77 77 77 77 76 76 76 75 74 74 73 72 71 71 71 71 72 72 73 73 74 74 75 75 76 77 78 78 79 80 80 81 82 83 83
56 56 56 56 57 58 59 60 61 62 63 64 65 66 68 70 72 73 74 74 74 74 75 75 76 76 77 77 77 77 77 76 76 75 75 74 74 73 72 72 73 73 73 73 74 74 75 75 76 76 77 78 78 79 80 80 81 81 82 82 83 84
58 57 57 57 57 58 59 61 62 63 64 65 67 68 70 72 74 74 75 75 75 76 76 76 76 77 77 77 77 77 77 76 76 75 75 74 74 74 73 74 74 74 75 75 76 76 76 77 77 78 79 79 80 80 81 81 82 82 83 84 85 85
60 57 56 56 58 60 62 64 65 65 66 68 69 71 73 75 75 76 76 76 77 77 77 77 77 77 77 77 77 77 76 76 75 75 74 74 74 74 74 74 75 76 76 77 77 78 78 79 79 80 80 81 81 82 82 83 83 84 85 86 87 87
61 56 56 58 61 64 66 67 67 68 69 71 72 74 76 77 77 77 77 77 77 77 77 77 77 78 78 77 77 76 76 75 74 74 74 74 74 74 75 76 76 77 78 78 79 79 80 80 81 81 82 82 83 83 84 85 85 86 87 87 88 88
59 58 61 64 66 67 67 68 69 71 72 73 75 77 77 77 77 77 77 77 77 77 77 77 78 78 78 77 77 76 74 74 73 73 74 74 75 75 76 77 77 78 79 80 81 81 82 82 82 83 83 84 85 85 86 86 87 87 87 87 86 86
61 64 65 66 67 68 69 70 71 72 74 75 76 77 77 77 77 77 77 77 76 77 77 78 78 78 78 77 76 74 73 73 73 74 74 75 75 76 77 78 79 80 81 82 82 83 84 84 84 85 86 86 86 86 86 86 86 85 84 83 82 82
65 66 66 67 68 70 71 71 72 73 74 75 75 76 76 76 76 76 76 76 76 76 77 77 77 77 76 75 74 73 73 73 74 74 75 76 77 78 79 80 81 82 82 83 84 84 85 85 86 86 86 86 86 85 85 83 82 81 80 79 78 77
66 66 68 69 70 70 71 71 72 73 73 74 75 75 75 76 76 75 75 75 75 76 76 76 76 75 75 74 73 73 73 74 74 75 76 77 78 79 80 81 82 83 83 84 84 85 85 85 85 85 84 84 82 81 80 78 77 75 74 73 73 72
67 69 70 70 70 70 70 71 71 72 73 74 75 75 75 76 75 75 74 74 74 74 74 74 74 74 73 73 73 74 74 75 76 77 78 79 80 81 81 82 83 83 83 83 83 84 84 83 82 81 80 78 77 75 73 72 70 70 69 68 68 67
70 71 70 70 70 70 70 71 72 73 74 75 75 75 75 75 74 73 73 72 72 72 72 72 72 72 72 73 74 75 76 77 78 79 80 80 81 81 82 82 82 82 81 81 81 80 79 78 76 75 73 72 70 69 67 66 65 65 65 65 65 66
71 70 70 70 70 70 71 72 73 74 74 74 73 73 73 72 72 71 71 71 70 70 69 70 71 72 73 75 76 77 78 78 79 80 81 81 81 80 80 80 79 79 78 77 76 75 73 72 70 68 67 66 65 64 63 63 63 63 64 65 66 67
70 70 70 70 70 71 72 72 73 72 71 71 71 71 71 70 70 69 69 68 68 68 69 70 72 73 75 76 77 78 79 80 80 80 80 80 79 78 77 76 75 74 73 72 70 68 67 65 63 62 62 62 62 62 62 63 64 65 66 68 69 69
70 70 69 70 70 70 71 70 70 69 68 68 68 68 68 68 67 67 66 67 68 69 70 71 73 75 76 77 78 79 79 80 80 79 78 77 76 74 73 72 71 69 68 66 64 62 61 61 60 60 61 62 62 63 64 65 66 67 68 68 69 69
69 69 69 69 69 69 69 68 67 66 66 66 65 65 65 65 65 66 66 67 69 70 71 72 74 76 77 78 78 79 79 79 77 76 74 73 71 70 69 67 66 64 62 61 59 58 59 59 60 61 62 63 64 64 65 66 66 66 67 67 67 67
69 69 69 69 69 67 66 65 65 64 63 63 63 64 64 65 65 66 67 68 69 70 72 74 76 77 78 78 78 78 77 75 73 72 70 69 67 66 64 62 60 59 58 57 57 57 58 60 61 61 62 63 64 64 65 65 65 65 65 65 65 64
69 69 69 68 66 65 64 63 63 62 62 62 63 64 64 65 66 66 68 69 71 73 75 76 77 78 78 77 76 74 72 71 69 68 66 65 63 61 59 57 56 56 56 56 57 58 59 60 61 62 62 63 63 63 63 63 63 63 63 63 63 62
69 68 66 65 64 63 63 62 62 62 62 62 63 64 65 65 66 68 70 72 73 75 76 77 77 76 75 73 71 69 68 67 66 64 63 61 58 56 55 54 54 55 56 57 57 58 58 59 60 61 61 62 62 62 62 62 61 61 61 61 61 61
66 65 64 63 63 62 62 62 61 62 62 63 64 65 66 67 69 71 72 74 75 76 76 75 74 72 70 68 67 66 65 64 62 61 58 56 54 54 54 54 54 55 56 56 57 57 57 58 59 60 60 60 61 61 60 60 60 60 60 59 59 59
65 64 63 63 62 62 61 61 61 62 62 64 65 66 68 70 71 73 74 74 74 74 72 70 68 66 66 65 64 63 62 60 59 57 55 54 53 53 53 54 54 55 55 55 56 56 56 56 57 58 58 58 59 59 59 58 58 58 58 58 58 58
63 62 62 62 62 61 61 61 62 63 64 66 67 69 70 71 72 72 72 71 70 68 66 65 64 63 62 61 60 59 58 57 55 54 53 53 52 52 53 53 54 54 54 54 54 55 55 54 55 55 56 56 56 56 57 57 57 57 57 57 58 58
62 61 61 61 61 61 61 62 64 66 67 68 69 70 71 71 70 69 67 65 64 63 62 61 60 60 59 58 57 57 56 54 53 53 52 51 51 51 52 52 52 52 53 53 53 53 53 52 52 53 53 53 54 55 55 56 56 57 58 58 58 58
61 61 61 61 61 62 63 65 67 68 69 69 69 70 69 67 64 62 60 60 59 59 58 58 57 57 56 55 55 55 53 52 52 51 50 50 50 50 51 51 52 52 52 52 52 52 51 51 51 52 52 53 54 55 56 56 57 58 59 60 60 60
61 61 61 62 63 64 66 67 68 69 69 68 67 65 62 59 57 56 57 57 57 56 56 56 55 54 53 53 53 52 51 51 50 49 49 49 49 50 50 51 52 52 52 52 52 52 52 51 52 52 53 54 54 55 56 57 58 59 60 61 62 62
61 61 62 63 65 66 67 67 68 67 65 63 60 57 54 53 54 54 55 55 54 54 54 54 53 52 51 52 51 50 50 49 49 48 48 49 49 50 51 51 52 53 53 53 53 53 53 53 53 53 54 55 55 56 57 58 59 60 62 63 63 63
61 62 64 65 66 66 66 66 65 63 60 56 54 52 51 52 53 54 53 53 52 53 53 52 50 49 50 50 50 49 49 49 48 48 49 50 50 51 52 52 53 54 55 55 55 55 55 55 55 56 56 57 57 57 58 59 61 62 63 63 63 62
63 64 65 65 65 65 65 63 61 57 54 52 51 51 52 53 54 54 53 52 52 52 52 50 49 49 49 49 49 49 49 49 49 49 50 51 52 53 53 54 55 56 56 57 57 57 57 58 58 58 59 59 59 59 60 61 63 64 64 63 61 60
65 65 64 64 63 62 61 58 55 52 51 51 51 52 54 54 55 55 54 53 53 52 51 50 49 48 49 49 49 49 49 50 50 51 52 53 54 55 55 56 57 57 58 58 58 58 59 59 60 60 61 61 62 62 62 63 65 66 65 62 60 58
64 63 62 60 58 57 55 53 51 50 51 52 52 53 54 55 55 56 55 54 53 52 51 50 49 48 49 50 50 50 51 52 53 54 55 56 57 57 57 58 58 59 59 59 59 60 60 60 61 62 62 63 64 64 64 65 66 67 66 62 58 56
60 58 57 55 53 52 51 50 49 50 51 52 53 53 54 55 56 56 56 55 54 53 52 51 51 50 50 50 51 52 53 54 55 56 57 58 59 59 59 60 60 61 61 61 61 61 61 61 62 63 63 64 64 65 66 66 67 69 66 61 56 55
54 53 52 51 50 50 50 49 50 51 52 53 54 54 55 56 57 57 57 56 55 55 54 54 54 53 52 53 53 54 55 56 58 58 59 60 60 61 61 62 62 62 62 62 62 63 63 63 63 63 63 64 65 66 66 67 68 69 66 60 56 54
50 50 50 49 49 50 50 50 51 52 53 54 55 56 56 57 58 58 58 57 57 57 57 56 56 56 55 55 56 57 58 59 59 60 61 61 62 62 63 64 63 63 64 64 64 64 64 64 64 64 64 65 65 66 67 67 68 69 65 59 55 54
49 49 49 49 50 50 50 51 52 53 54 56 57 57 57 58 58 59 59 59 59 59 59 59 59 58 58 58 59 60 60 60 60 61 62 62 63 63 64 64 64 64 64 64 65 65 65 64 64 64 65 65 65 66 66 67 68 68 65 58 55 54
49 49 50 50 51 51 51 52 53 55 56 57 57 58 58 59 60 60 60 60 60 60 61 61 61 60 60 60 61 61 61 61 61 62 62 63 64 64 64 64 64 65 65 64 65 65 65 64 64 65 65 65 65 65 66 66 67 68 64 58 55 54
49 50 51 51 51 52 53 54 55 57 58 58 59 59 60 61 61 62 62 61 61 61 61 62 62 61 61 61 62 62 62 62 62 62 62 63 64 64 65 65 65 65 65 65 65 65 65 65 65 65 66 65 64 64 65 65 67 67 63 57 54 54
50 51 52 53 53 55 56 56 57 57 58 59 60 61 62 63 63 63 63 62 61 61 62 62 61 61 61 62 62 63 63 63 63 63 64 65 65 65 64 65 66 66 65 65 65 65 64 65 65 66 65 64 63 64 65 65 66 66 61 56 54 52

ECMWFFLT1_500_spd_045.txt.gz
Wind_Speed
45 46 47 49 51 51 51 50 49 49 50 50 51 53 56 58 59 60 60 61 61 62 63 64 65 66 66 67 68 69 70 72 73 74 76 77 77 77 77 76 76 75 75 75 75 75 75 75 75 75 75 75 75 75 75 75 76 76 76 76 77 77
46 47 50 52 53 52 52 51 51 52 53 53 54 57 59 60 60 60 61 62 63 64 65 65 66 67 68 69 70 71 72 74 75 76 77 77 77 77 77 77 76 76 75 75 75 75 75 75 76 76 75 76 76 76 76 76 76 77 77 77 78 78
49 50 52 53 54 53 53 54 55 55 55 56 58 61 61 61 61 61 62 64 65 66 67 68 69 70 70 71 72 73 74 75 76 77 77 77 77 77 77 76 76 76 76 76 76 76 76 76 76 76 76 76 76 76 77 77 77 78 78 79 80 80
52 53 54 55 55 55 56 57 57 56 56 59 62 63 63 63 63 64 64 65 67 68 70 71 71 72 72 73 74 75 76 76 77 77 77 77 77 77 76 76 76 76 76 76 76 76 76 76 76 76 76 76 76 76 77 78 79 79 80 81 82 83
55 55 56 57 57 57 58 57 55 56 59 62 63 64 65 66 65 65 66 67 68 70 71 72 73 73 74 75 76 76 76 77 77 77 77 77 77 76 76 76 76 76 77 77 77 76 76 76 75 75 76 76 77 78 78 80 81 82 83 84 85 85
57 58 59 58 58 57 57 56 56 59 62 63 64 66 67 67 67 67 67 69 71 72 73 73 74 75 75 76 76 76 77 77 77 77 77 76 76 76 76 76 76 76 77 77 77 76 76 76 76 76 77 77 78 80 81 82 83 85 86 87 88 88
60 61 60 58 57 57 57 57 59 62 64 65 67 68 68 67 67 68 70 72 72 73 74 75 76 76 76 76 77 77 77 78 77 77 76 76 76 76 76 76 76 76 76 76 76 76 76 76 77 78 79 80 81 83 84 85 87 88 88 89 89 89
62 61 59 58 58 58 59 60 62 64 66 68 69 70 69 68 69 71 72 73 74 75 75 76 76 76 77 77 77 77 78 77 77 76 76 75 75 75 76 76 75 76 76 76 76 76 77 78 79 80 82 83 84 86 87 88 88 89 89 88 87 86
62 60 59 60 61 61 62 63 66 68 69 70 71 71 69 69 71 73 74 74 75 75 76 76 76 77 77 77 77 77 77 77 76 76 75 75 75 75 75 75 75 76 76 77 77 78 79 81 82 84 85 86 87 88 88 88 87 86 85 84 83 81
61 60 62 64 64 64 65 66 68 69 70 71 72 71 71 72 73 74 74 75 75 76 76 76 76 76 77 77 77 77 76 76 76 75 74 74 74 74 75 75 75 76 77 78 80 81 82 84 85 86 87 87 87 86 85 84 83 81 80 78 76 75
61 63 65 66 65 66 67 68 70 71 72 72 72 72 72 74 74 75 75 76 76 76 76 76 76 76 76 76 76 76 75 75 74 74 73 74 74 74 75 75 76 77 79 81 82 84 85 85 86 86 86 85 84 82 80 79 77 75 73 71 70 68
64 66 67 66 67 68 69 70 71 72 72 72 72 73 74 74 75 76 76 76 76 76 76 75 75 75 75 75 75 75 74 74 73 73 73 74 74 75 75 76 78 80 81 83 84 84 85 85 84 83 82 80 78 76 74 72 70 69 67 65 64 63
66 67 67 68 69 70 70 71 71 72 72 73 74 74 75 76 76 76 76 75 75 75 74 74 73 73 73 73 73 73 73 73 72 73 73 74 75 75 77 78 80 82 82 83 83 83 83 81 80 78 77 75 73 71 69 67 65 64 63 62 62 62
67 67 68 69 70 70 71 71 72 73 74 74 74 75 76 76 75 75 75 75 74 73 72 72 72 71 71 72 72 72 72 72 72 73 73 74 76 77 79 80 81 81 81 81 80 79 78 77 75 73 72 70 68 66 64 62 61 61 60 61 61 62
68 68 69 70 70 70 71 72 74 75 75 75 75 76 76 75 74 75 74 73 72 70 70 70 70 69 70 70 71 72 72 72 73 73 74 76 77 78 79 79 79 78 78 77 76 75 74 72 71 69 67 65 63 62 61 60 60 59 60 60 60 60
68 69 69 69 70 71 73 75 76 76 76 76 76 75 74 74 73 73 72 71 70 69 68 68 68 68 69 70 71 72 72 73 73 75 76 77 78 78 77 76 75 74 74 73 72 71 70 68 66 64 63 61 60 60 59 59 59 58 58 59 59 59
68 69 70 71 73 75 76 77 77 77 77 75 74 73 73 72 72 72 70 68 68 67 67 67 67 68 69 70 71 72 72 73 75 76 77 77 76 74 72 71 71 71 70 69 68 67 66 64 62 61 59 59 58 58 58 58 57 57 57 57 57 57
70 71 72 74 76 77 78 78 78 76 75 73 72 72 72 71 71 70 68 67 66 66 66 66 67 68 69 70 71 72 73 75 76 76 75 73 71 69 68 68 68 68 67 67 66 64 62 61 60 58 58 58 57 57 57 57 56 56 56 56 55 56
72 73 75 77 78 78 78 77 75 74 72 72 71 71 71 70 69 67 66 65 65 65 66 67 68 68 69 70 72 73 74 74 74 73 70 68 66 65 65 66 65 65 65 64 63 61 60 59 58 57 57 57 57 57 56 56 55 55 54 54 54 54
74 75 77 78 77 76 75 73 72 71 71 70 70 69 69 68 66 65 65 65 65 66 67 67 68 69 70 71 72 73 73 72 70 67 65 64 63 64 64 64 64 63 63 61 60 59 58 58 57 57 56 57 57 56 56 55 54 54 53 53 53 54
76 77 77 76 74 73 72 71 71 70 69 69 68 68 66 65 64 64 65 65 66 66 67 68 69 70 71 71 72 72 70 68 65 63 62 62 63 63 63 63 62 61 60 59 58 57 56 56 56 56 56 56 56 56 56 55 54 54 53 53 53 54
77 76 75 73 72 72 71 70 69 69 68 67 66 65 64 63 64 65 66 66 66 67 68 69 70 71 71 71 70 68 65 63 61 61 62 62 63 62 62 61 60 59 57 57 56 56 56 55 55 55 55 56 56 56 56 56 55 55 55 54 55 55
75 74 73 72 72 71 70 69 68 67 66 65 64 63 63 64 65 65 65 66 67 68 69 70 71 71 70 68 66 63 61 60 61 61 62 62 62 61 60 59 58 57 56 56 55 55 55 54 54 54 55 56 56 57 57 57 57 57 57 57 57 58
73 72 71 70 70 69 68 66 65 64 63 63 62 62 63 64 65 65 66 67 68 69 70 70 70 69 66 63 60 59 60 61 61 62 62 62 61 60 59 58 56 55 55 54 54 54 54 54 54 55 56 56 57 57 58 58 58 59 59 60 60 60
71 70 69 68 67 66 65 63 62 62 62 61 61 62 64 65 65 66 67 68 69 69 69 68 66 64 61 58 58 59 60 61 62 62 62 61 60 58 57 56 55 55 54 54 53 54 54 55 55 56 57 57 58 58 59 59 60 60 61 61 62 63
68 67 66 65 64 63 62 60 60 60 60 60 61 64 65 66 67 68 68 68 69 68 66 64 61 58 57 57 58 60 61 61 62 62 61 60 59 57 55 55 54 54 54 53 53 54 55 56 57 57 58 59 59 60 60 61 61 62 62 63 63 64
65 64 63 62 60 60 59 59 59 59 59 61 64 66 67 68 68 68 68 68 66 64 61 59 57 56 56 58 60 61 61 62 62 61 60 59 57 56 55 54 54 54 53 53 54 55 56 57 58 59 60 60 61 61 62 62 63 63 64 64 65 65
62 61 60 59 58 58 58 58 59 60 61 63 66 67 68 68 68 67 66 64 61 59 57 55 55 56 58 59 60 61 62 62 61 60 59 57 56 55 54 54 54 54 54 55 56 57 57 58 58 59 60 61 62 62 63 63 64 64 65 65 65 66
59 58 58 58 58 58 59 60 61 62 63 65 67 68 68 67 66 64 62 59 57 56 55 55 56 57 58 59 60 61 61 61 60 59 57 56 55 55 55 55 56 56 56 57 58 58 59 59 59 60 61 62 63 63 64 64 64 65 65 65 66 66
57 57 57 58 59 60 61 62 63 64 65 66 67 67 66 64 61 59 57 56 56 56 56 56 57 58 59 60 60 61 61 61 60 59 58 57 56 55 56 57 58 58 59 60 60 60 61 60 60 61 62 63 63 63 64 65 65 66 66 65 66 66
57 58 59 60 61 62 63 64 65 65 66 66 65 63 62 59 57 56 55 55 56 56 57 58 59 60 61 61 61 61 61 62 62 61 60 59 58 58 58 59 59 60 61 61 62 62 61 61 60 61 62 63 63 64 65 65 65 66 65 65 66 66
59 60 61 62 63 64 65 65 65 64 63 62 61 60 58 57 56 55 55 56 57 57 58 59 61 62 62 62 62 62 62 63 63 63 63 62 61 61 61 61 60 61 61 62 62 62 62 61 61 61 62 63 64 64 65 65 65 66 65 65 66 66
62 63 63 63 64 65 64 63 61 60 58 57 57 57 57 56 56 56 56 56 57 59 60 61 62 63 63 64 64 64 64 65 65 65 65 64 63 63 63 62 62 61 61 62 62 62 62 62 62 62 63 63 64 64 64 65 65 65 64 64 65 65
64 65 64 63 62 61 60 58 56 55 55 55 55 57 57 58 57 57 57 57 58 59 61 62 62 63 64 64 65 66 66 67 67 67 67 66 64 64 63 62 62 61 61 62 62 62 62 62 62 63 63 63 63 63 64 64 65 64 63 64 65 65
66 64 62 60 58 56 54 53 53 53 54 55 56 58 58 59 59 58 58 59 59 61 62 63 63 64 64 65 66 67 68 69 69 68 67 66 65 64 62 61 61 62 62 62 62 63 63 63 63 63 63 62 62 63 63 64 64 63 64 65 64 64
64 61 58 55 53 52 52 52 53 54 55 56 57 58 58 59 59 59 60 60 61 62 63 64 64 64 65 66 67 68 68 69 69 68 67 66 65 63 62 61 61 63 64 63 63 63 63 63 63 63 63 63 63 63 64 64 64 63 63 64 63 64
59 56 54 52 52 52 52 53 54 55 56 57 57 58 58 59 59 60 61 62 63 64 64 64 64 65 66 67 67 67 67 67 67 66 66 65 65 64 62 62 62 63 64 63 63 64 64 64 64 64 64 64 64 64 64 64 63 63 63 63 63 64
54 53 52 52 53 53 54 54 55 55 56 56 57 57 58 59 60 62 63 63 64 64 65 65 65 66 66 66 66 66 65 65 64 64 64 65 65 64 63 62 62 62 63 64 64 65 65 65 65 64 64 64 64 64 64 63 63 63 63 62 63 63

ECMWFFLT1_500_spd_048.txt.gz
Wind_Speed
33 33 34 36 38 40 40 42 43 45 46 47 49 50 51 52 53 53 53 54 54 54 56 59 62 64 64 65 65 65 65 66 66 67 68 69 70 72 73 74 75 76 77 78 79 79 78 78 78 78 79 78 78 77 77 77 77 77 78 78 78 78
35 36 37 39 40 41 41 43 45 46 46 48 49 51 52 53 54 54 54 55 55 57 59 62 64 65 66 66 66 66 67 67 68 69 70 71 73 74 75 76 77 77 78 79 79 79 78 78 78 78 78 77 77 77 77 77 77 77 77 78 78 78
38 39 41 41 41 42 44 45 46 46 47 49 50 51 53 54 55 55 55 56 58 60 62 64 65 66 66 67 68 68 68 69 70 71 72 74 75 76 77 77 78 79 79 79 79 79 78 78 78 78 77 77 76 76 76 77 77 77 77 77 77 78
40 41 42 42 43 45 45 46 46 47 49 50 51 53 54 56 56 56 57 59 60 62 64 65 66 67 68 69 69 69 69 70 72 73 75 76 77 77 78 79 79 80 80 80 80 79 79 78 78 77 77 76 76 76 76 76 76 76 76 77 78 79
41 41 42 44 45 46 46 46 48 49 50 51 53 55 56 57 57 58 59 61 62 64 65 66 67 68 69 70 70 70 71 73 75 76 77 78 79 79 80 80 80 80 80 80 80 79 78 78 77 77 76 75 75 75 75 75 75 76 77 79 80 82
41 43 45 46 47 47 47 48 50 51 51 52 54 56 57 58 58 60 62 63 64 65 66 67 68 70 71 71 71 72 74 76 77 79 79 80 80 80 80 80 80 80 80 80 79 78 77 77 76 76 75 74 74 74 75 75 77 78 80 81 82 83
44 46 47 47 47 48 49 51 52 52 53 55 57 58 59 60 61 62 63 64 66 67 67 68 69 71 72 72 74 76 77 79 81 81 82 82 81 81 80 80 80 80 80 79 78 77 76 76 75 75 74 74 74 75 76 77 79 80 81 81 81 81
48 48 48 48 49 51 53 55 55 55 56 57 59 61 62 62 64 64 65 67 67 67 68 69 71 72 73 75 77 79 81 82 83 83 83 82 82 81 80 80 79 79 78 77 77 76 75 75 75 74 74 75 75 77 78 79 80 80 80 79 78 78
50 49 49 50 52 54 56 57 57 57 57 59 62 64 64 65 65 66 67 67 67 68 69 71 72 73 75 77 79 81 83 84 84 83 82 82 81 80 79 79 78 77 77 76 75 75 75 74 75 75 75 76 78 79 79 79 78 78 77 76 76 76
51 51 52 53 54 55 56 56 56 57 59 62 65 66 66 66 67 67 68 68 68 69 70 72 74 76 78 80 82 84 85 84 83 82 82 81 81 80 78 77 77 76 75 74 74 74 74 75 75 76 77 78 79 78 78 77 75 74 74 74 74 74
53 53 54 55 55 56 56 56 58 60 63 65 67 67 67 67 68 68 69 68 69 70 72 74 76 79 81 82 84 86 85 83 82 82 82 81 80 79 77 77 76 75 74 74 74 74 75 76 77 78 79 79 77 76 74 73 72 72 72 72 72 72
56 56 57 57 57 57 57 58 60 63 65 67 67 68 68 69 69 69 69 69 70 72 74 77 79 81 83 84 85 85 83 82 81 81 81 80 79 78 77 76 75 74 73 73 74 75 76 77 78 79 78 76 74 72 71 70 70 70 70 70 69 68
58 59 59 59 59 58 59 61 63 65 67 67 68 69 69 69 69 69 70 70 72 74 77 79 81 82 83 83 83 82 81 81 81 81 80 79 78 77 75 74 73 73 73 74 75 76 77 78 79 78 75 72 70 69 69 69 69 69 68 67 66 65
60 61 61 61 61 60 61 62 65 67 68 68 69 69 69 69 69 70 71 73 75 77 79 81 82 81 81 81 82 81 81 81 80 79 78 77 76 75 73 73 73 73 74 75 76 77 78 78 76 73 70 69 68 68 67 67 67 66 65 65 63 62
63 64 63 62 61 61 62 64 66 67 68 68 69 69 69 69 70 72 73 75 76 78 80 81 80 79 80 81 81 81 80 79 79 78 77 76 74 73 73 73 73 74 75 76 77 77 77 75 71 68 67 67 67 67 66 66 65 64 63 62 61 60
66 65 63 61 61 62 64 66 67 67 68 68 68 68 70 71 72 73 75 76 78 79 80 80 78 78 79 81 80 80 79 78 77 76 75 74 73 73 73 73 74 75 76 77 77 75 73 70 67 65 66 66 66 66 66 65 64 63 62 61 60 59
64 62 61 61 62 64 65 66 66 67 67 68 69 70 71 72 73 75 76 77 78 80 80 78 77 78 80 80 79 78 77 76 75 74 73 73 73 73 73 73 75 76 76 76 74 71 68 66 65 65 65 66 66 65 64 64 63 62 61 60 59 58
61 60 61 62 63 64 65 65 66 67 68 69 70 71 72 74 75 76 77 78 79 79 78 77 78 79 79 79 77 76 74 73 72 72 72 73 73 73 74 75 75 76 75 73 69 66 64 64 64 65 65 65 65 64 63 63 62 61 60 59 58 57
60 61 62 63 64 65 65 66 68 69 69 70 71 72 74 75 76 77 77 78 79 78 78 78 78 78 78 76 74 73 71 71 71 72 73 73 74 74 75 75 75 74 71 67 64 63 63 64 64 65 64 64 64 63 62 62 61 59 58 57 57 57
61 62 64 64 65 66 67 68 69 69 70 71 72 74 76 77 77 77 78 78 79 78 78 78 77 76 75 73 71 70 70 70 71 72 73 74 75 75 75 74 72 69 65 62 62 63 63 64 64 64 64 64 63 62 61 61 60 58 57 56 56 56
62 64 65 65 66 67 68 68 69 70 72 74 75 78 79 78 77 77 78 78 78 78 77 76 74 73 71 70 69 69 70 71 72 73 74 75 75 74 73 71 67 63 61 61 63 63 63 64 64 64 63 63 62 61 61 60 58 57 56 56 56 56
63 64 65 66 67 67 68 70 71 73 75 77 79 79 78 77 77 77 78 77 76 76 74 73 71 70 68 68 68 69 70 72 73 74 74 74 74 72 69 65 61 59 60 62 63 64 63 63 63 63 62 62 61 61 60 59 58 56 56 56 56 57
64 65 66 67 68 70 71 73 75 77 78 79 79 77 75 75 76 76 76 75 74 73 71 69 68 67 67 68 69 70 72 73 74 74 74 73 72 68 64 60 58 59 61 63 64 64 63 63 62 62 62 61 61 60 59 58 57 57 57 57 57 58
66 67 68 70 71 73 74 75 77 77 78 77 75 73 73 74 75 74 73 72 71 69 68 67 67 67 68 69 70 71 72 73 73 73 72 70 67 63 59 58 59 61 62 63 64 64 64 63 62 61 61 61 60 60 59 59 58 58 58 58 59 59
68 69 71 72 73 74 75 76 75 75 75 73 71 71 72 73 72 71 70 69 67 66 66 66 67 68 69 70 71 72 72 73 72 71 69 66 62 59 58 59 60 62 63 63 64 64 63 63 62 61 61 61 60 59 59 59 59 59 60 60 60 60
70 71 72 73 73 74 74 73 73 73 72 70 70 71 71 70 69 68 67 66 66 65 66 67 68 69 70 71 72 72 72 71 70 67 64 61 59 59 59 60 61 62 63 63 64 63 63 63 62 62 61 60 60 60 60 60 61 61 61 61 60 60
71 71 72 72 72 72 71 71 71 70 69 69 69 69 68 67 67 66 65 65 65 66 67 68 69 70 71 71 72 71 70 68 65 62 60 59 59 60 60 61 62 63 64 64 63 63 62 62 62 62 61 61 60 60 61 61 62 62 62 62 61 60
71 71 71 71 70 70 70 70 70 69 68 67 68 67 66 66 65 65 65 66 66 67 68 69 70 70 71 71 70 68 66 63 61 59 59 59 60 61 62 63 63 64 64 64 63 63 63 62 62 62 61 61 61 61 61 62 62 62 62 62 62 61
71 70 70 69 69 68 68 68 68 67 66 65 65 65 65 65 65 65 66 67 67 68 69 69 70 70 70 69 67 64 62 60 59 59 59 60 61 62 63 64 65 65 65 64 64 64 63 63 63 62 61 61 62 62 62 63 62 63 63 63 63 62
70 69 68 68 67 67 66 65 65 64 64 64 64 64 65 65 65 66 67 67 68 69 69 69 69 69 67 65 63 61 60 59 59 59 60 61 62 63 64 65 66 66 65 65 65 65 65 64 64 62 61 61 61 62 62 62 62 63 64 64 63 63
67 66 66 65 65 64 64 64 63 63 63 63 63 64 65 66 66 67 68 68 68 68 68 68 68 66 64 63 61 60 59 59 60 60 61 62 63 64 66 67 67 67 67 67 66 66 66 65 65 63 63 62 61 61 62 62 63 63 64 64 64 63
64 64 63 62 63 63 63 62 63 63 63 64 65 66 67 67 68 68 68 68 68 67 67 66 65 64 62 61 60 60 60 60 61 61 62 63 64 66 67 68 69 68 68 68 67 67 67 66 65 65 64 63 62 62 62 62 63 64 64 64 64 63
62 61 61 61 62 62 62 62 62 63 64 66 67 68 69 69 69 69 68 68 67 66 64 63 62 61 61 60 61 61 62 62 63 64 64 65 67 68 69 70 70 70 69 69 68 68 68 67 66 65 63 62 62 62 62 63 63 64 64 64 64 62
61 60 60 60 61 61 62 63 64 65 66 67 68 69 69 69 69 69 67 66 64 62 61 60 60 61 61 62 62 63 63 64 65 65 66 68 69 70 70 70 70 70 70 69 69 69 68 67 66 64 63 62 63 63 63 64 64 64 64 64 63 62
61 61 61 61 62 62 63 65 66 67 67 68 68 68 68 67 67 65 63 62 61 60 60 60 60 61 62 63 64 64 65 65 66 67 68 69 70 70 70 70 69 69 69 69 68 68 67 66 65 63 63 63 64 65 66 66 65 64 64 64 63 62
62 63 63 64 65 65 66 67 67 67 67 67 67 66 65 64 62 61 60 60 60 60 61 61 62 63 63 64 65 66 66 67 67 68 69 70 70 70 69 69 68 67 67 66 66 65 65 64 63 63 63 64 65 67 67 66 65 64 64 64 63 62
64 65 65 66 66 67 67 67 66 66 65 64 63 62 61 60 59 59 60 60 61 61 62 63 63 64 64 65 66 67 67 68 69 70 70 70 69 69 69 69 68 67 66 65 65 65 64 63 63 63 64 65 66 67 67 67 66 64 64 64 63 63
65 65 65 65 66 66 66 65 64 63 62 60 59 58 58 58 58 59 60 61 62 62 63 64 64 65 65 66 67 68 69 70 70 71 70 70 70 69 69 69 68 68 67 67 66 65 64 64 64 64 65 66 67 67 67 67 65 64 64 64 64 64